Simultaneous Nadir Overpasses (SNOs) Predictions

Prediction of SNOs between LANDSAT-8 and METOP-B Satellite Orbit:

Table of predicted SNOs for the next 14.0 days since TLE Epoch: 2/18/2023
Index Date (LANDSAT-8) Time (LANDSAT-8) Lat,Lon (LANDSAT-8) SZA (LANDSAT-8 ) Date (METOP-B) Time (METOP-B) Lat,Lon (METOP-B) SZA (METOP-B ) Distance(km) Time Diff (sec)
1 02/20/2023 17:12:32 -81.12, 141.45 86.42 02/20/2023 17:11:46 -81.12, 141.37 86.44 1.37 46
2 02/20/2023 18:01:57 81.15, -50.47 93.64 02/20/2023 18:02:24 81.15, -50.37 93.66 1.72 27
3 02/23/2023 12:46:43 -81.12,-152.15 87.44 02/23/2023 12:46:09 -81.11,-152.28 87.46 2.18 34
4 02/23/2023 13:36:08 81.15, 15.91 92.62 02/23/2023 13:36:47 81.15, 15.95 92.64 0.78 39
5 02/26/2023 08:20:52 -81.12, -85.70 88.47 02/26/2023 08:20:30 -81.12, -85.67 88.47 0.57 22
6 02/26/2023 09:10:17 81.14, 82.34 91.58 02/26/2023 09:11:09 81.14, 82.16 91.58 3.18 52
7 03/01/2023 03:55:01 -81.12, -19.18 89.50 03/01/2023 03:54:52 -81.12, -19.18 89.50 0.29 9
8 03/01/2023 04:44:26 81.15, 148.84 90.54 03/01/2023 04:45:30 81.15, 149.01 90.59 3.06 64
9 03/03/2023 22:39:43 81.11,-120.58 89.42 03/03/2023 22:38:34 81.11,-120.64 89.39 1.00 69



Historial Predications of SNOs between LANDSAT-8 and METOP-B
